Location: Unspecified
(0.0000°N, 0.0000°E)
Time: 20:40:47
(UTC+00:00)

CZ-3C DEB - Pass Details

Date: 12 March 2026
Orbit: 717 x 38360 km, 18.5° (Epoch: 25 March)

Event Time Altitude Azimuth Distance (km) Brightness Sun altitude
Exits shadow 00:12:21 10° 94° (E) 6,357 ? -86.5°
Drops below altitude 10° 00:12:36 10° 94° (E) 6,459 ? -86.5°
Sets 00:26:34 0° 84° (E) 11,629 ? -84.6°
